Location: Bun Machan
(52.1403°N, 7.3744°W)
Time: 19:10:25
(UTC+00:00)

Cosmos 1743 - Pass Details

Date: 14 July 2020
Orbit: 511 x 526 km, 82.6° (Epoch: 12 August)

Event Time Altitude Azimuth Distance (km) Brightness Sun altitude
Exits shadow 03:02:19 - 166° (SSE) 2,307 5.6 -9.6°
Reaches altitude 10° 03:03:45 10° 160° (SSE) 1,739 5.0 -9.5°
Maximum altitude 03:07:16 36° 92° (E) 827 4.1 -9.1°
Drops below altitude 10° 03:10:50 10° 25° (NNE) 1,761 7.0 -8.8°
Sets 03:13:05 0° 17° (NNE) 2,657 7.9 -8.6°
